ARIANE 42P DEB, 44511

Orbit data source: Space-Track

ARIANE 42P DEB, 44511 is space debris in LEO originally from a launch on Mon, 10 Aug 1992 UTC launched from the French Guiana (FRGUI). Debris objects in space refer to the collection of defunct objects orbiting the Earth. Examples of debris include non-operational satellites, rocket bodies, and fragments generated from explosions, collisions, or faulty payload assembly.

Loading next visibility...
Identifier
44511, 1992-052J
Orbit
LEO
Country
Flag of FRFR
Related business
Manufacturer
ArianeGroup
Mission
Spacecraft
Bus & Motor
Unknown
Mass
Unknown
Launch date (UTC)
1992-08-10 (33 years ago)
Launch vehicle
Unknown
Launch site
French Guiana (FRGUI)
Object type
Payload
Rocket body
Debris
Shape & HBR
Unknown
Radar Cross Section
Small (<0.1 m²)

Expand to show TLE details & history
Last TLE update: 20 hours ago

TLE from 20 hours ago
0 ARIANE 42P DEB
1 44511U 92052J   25261.01354093  .00001715  00000-0  72787-2 0  9991
2 44511  66.0653 127.7117 0055347  75.1006 285.6132 12.84588875285257
Epoch: 2025-09-18T00:19Z
TLE epoch observation values (Epoch: 2025-09-18T00:19:29.936Z)
Latitude
0.00004°
Longitude
125.65575°
Altitude
1,313.736 km
Speed
7.206 km/s
True Right ascension
08h 30m 50s
True Declination
0° 00' 00"
Sunlit
Object was in daylight at epoch
Visualization orbit readout
Latitude
Unknown
Longitude
Unknown
Altitude
Unknown
Speed
Unknown
Apparent Right ascension
Unknown
Apparent Declination
Unknown
Sunlit
N/A
Visualization observer readout
Local Sidereal Time
13:02:41
Azimuth
Unknown
Elevation
Unknown
Doppler factor
Unknown
Orbital elements
Apogee altitude
1,364.248 km
Perigee altitude
1,279.016 km
Semi-major axis
7,699.769 km
Eccentricity
0.00553
Inclination
66.0653°
RAAN
127.7117°
Arg. of periapsis
75.1006°
True anomaly
285.00125°
Mean anomaly
285.6132°
Eccentric anomaly
285.30734°
Mean motion
3.21238 °/min
Orbital period
112.07 mins
BSTAR
0.0072787
Loading maneuver chart data...
Computing Atmospheric mass density...
Loading historical data...
Loading historical data...
Loading historical data...
Loading historical data...
Loading historical data...
Loading historical data...
Loading historical data...

Documentation

Showing up to 5 results
|